Regional Weather Roundup
Issued by NWS Cleveland, OH

Home | Current Version | Previous Version | Text Only | Print | Product List | Glossary Off
Versions: 1 2 3 4 5 6 7 8 9 10 11 12 13 14 15 16 17 18 19 20 21 22 23 24 25 26 27 28 29 30 31 32 33 34 35 36 37 38 39 40 41 42 43 44 45 46 47 48 49 50

000
ASUS41 KCLE 020100
RWRCLE
OHIO REGIONAL WEATHER ROUNDUP
NATIONAL WEATHER SERVICE WILMINGTON, OH
900 PM EDT WED APR 01 2015

NOTE: "FAIR" INDICATES FEW OR NO CLOUDS BELOW 12,000 FEET WITH NO
SIGNIFICANT WEATHER AND/OR OBSTRUCTIONS TO VISIBILITY.

OHZ001>008-015>018-024>027-034-035-043-044-020200-
   NORTHWEST OHIO

CITY           SKY/WX    TMP DP  RH WIND       PRES   REMARKS
DEFIANCE       PTCLDY    59  34  39 S7        30.02R
FINDLAY        PTCLDY    51  35  54 S9        30.03S
TOLEDO EXPRESS PTCLDY    56  33  42 S5        30.02R
TOLEDO EXEC    PTCLDY    49  38  65 SE7       30.04R
LIMA           PTCLDY    55  34  45 S9        30.05R
$$

OHZ009>014-019>023-028>033-038-089-020200-
   NORTHEAST OHIO

CITY           SKY/WX    TMP DP  RH WIND       PRES   REMARKS
CLE-HOPKINS    PTCLDY    50  34  54 SE5       30.09F
CLE-LAKEFRONT  CLEAR     47  34  60 SE3       30.06F
CUY CO. ARPT   CLEAR     46  36  66 SE7       30.08S
LORAIN-ELYRIA  CLEAR     48  35  60 S6        30.07S
ASHTABULA      CLEAR     42  33  70 E5        30.10R
AKRON-CANTON   PTCLDY    49  30  48 S8        30.10R
WOOSTER        NOT AVBL
MANSFIELD      CLEAR     52  33  48 S10       30.08R
YOUNGSTOWN     PTCLDY    50  30  46 S6        30.10R
$$

OHZ042-051>053-060>062-070>072-077>081-020200-
  SOUTHWEST OHIO

CITY           SKY/WX    TMP DP  RH WIND       PRES   REMARKS
CINC-COVINGTON MOCLDY    56  29  35 SE7       30.08R
CINC-LUNKEN    PTCLDY    54  31  41 S3        30.09R
HAMILTON       PTCLDY    52  32  46 CALM      30.08R
DAYTON         NOT AVBL
WRIGHT-PAT AFB CLEAR     57  31  37 SE6       30.07S
DAYTON GENERAL CLEAR     56  30  37 SE6       30.07S
WILMINGTON     CLEAR     52  34  50 SE6       30.08S
$$

OHZ036-037-039>041-045>050-054>059-063>069-073>076-082>088-020200-
  CENTRAL AND SOUTHEAST OHIO

CITY           SKY/WX    TMP DP  RH WIND       PRES   REMARKS
COLUMBUS       PTCLDY    56  31  38 SE6       30.09F
OSU AIRPORT    CLEAR     56  31  38 S7        30.09S
BOLTON FIELD   NOT AVBL
RICKENBACK AFB CLEAR     51  32  48 SE6       30.09S
NEWARK         CLEAR     50  35  56 CALM      30.10S
MARION         CLEAR     53  31  42 S9        30.07S
LANCASTER      CLEAR     48  37  65 SE6       30.11S
ZANESVILLE     CLEAR     53  29  39 CALM      30.12R
NEW PHILLY     CLEAR     49  33  54 CALM      30.12R
$$


USA.gov is the U.S. government's official web portal to all federal, state and local government web resources and services.